Regional Weather Roundup
Issued by NWS

Home | Current Version | Previous Version | Text Only | Print | Product List | Glossary Off
Versions: 1 2 3 4 5 6 7 8 9 10 11 12 13 14 15 16 17 18 19 20 21 22 23 24 25 26 27 28 29 30 31 32 33 34 35 36 37 38 39 40 41 42 43 44 45 46 47 48 49 50

000
ASUS43 KMPX 200310
RWRMN
WEATHER ROUNDUP FOR MINNESOTA
NATIONAL WEATHER SERVICE TWIN CITIES/CHANHASSEN MN
900 PM CST MON FEB 19 2018


NOTE: "FAIR" INDICATES FEW OR NO CLOUDS BELOW 12,000 FEET WITH NO
SIGNIFICANT WEATHER AND/OR OBSTRUCTIONS TO VISIBILITY. N/A MEANS
CURRENT SKY AND/OR WEATHER CONDITIONS ARE NOT AVAILABLE.

MNZ060>063-068>070-200400-
   Twin Cities Metro

CITY           SKY/WX    TMP DP  RH WIND       PRES   REMARKS
TWIN CITIES    FRZ DRZL  20  19  96 NE12      29.89F FOG     WCI   8
ST PAUL        CLOUDY    21  19  92 N10       29.91F FOG     WCI  10
CRYSTAL        CLOUDY    18  15  88 NE9       29.90F WCI   7
BLAINE         CLOUDY    19  18  93 NE13G18   29.90F WCI   7
LAKEVILLE      CLOUDY    19  19 100 NE10G16   29.88R WCI   8
EDEN PRAIRIE   LGT SNOW  20  16  84 NE10      29.88R FOG     WCI   9
SOUTH ST PAUL  CLOUDY    22  19  91 NE7       29.90R WCI  13
LAKE ELMO      CLOUDY    21  19  93 NE10G16   29.90R WCI  10
$$
MNZ001>005-007-008-013>017-022>024-027-028-200400-
   Northwest Minnesota

CITY           SKY/WX    TMP DP  RH WIND       PRES   REMARKS
BEMIDJI        LGT SNOW   8   3  79 N13G18    30.07F WCI  -8
HALLOCK        MOCLDY     5  -8  56 N9        30.23F WCI  -9
ROSEAU         MOCLDY     9  -2  61 NE9       30.19  WCI  -5
WARROAD        FAIR       7  -6  56 N8        30.20S WCI  -6
THIEF RVR FALL CLOUDY   N/A N/A N/A N12       30.18R
CROOKSTON      FAIR       7   0  72 N16       30.20S WCI -11
FOSSTON        LGT SNOW   5   0  78 N14       30.11F WCI -12
DETROIT LAKES  LGT SNOW  10   5  79 NE9       30.05R WCI  -2
MOORHEAD       LGT SNOW   7   0  72 N20       30.11F WCI -13
PARK RAPIDS    FLURRIES  10   4  76 NE9       30.01F WCI  -3
MAHNOMEN       FLURRIES   8   3  79 N16       30.08S WCI -10
$$
MNZ006-009>011-018-025>026-200400-
   North Central Minnesota

CITY           SKY/WX    TMP DP  RH WIND       PRES   REMARKS
BAUDETTE       CLOUDY     7  -4  60 NE12      30.16S WCI  -8
FLAG ISLAND    MOCLDY     7  -8  51 NE8       30.19F WCI  -6
INTL FALLS     CLOUDY     8  -2  63 NE8       30.15S WCI  -4
WASKISH        CLOUDY     9   0  66 N9        30.13S WCI  -5
BIG FORK       LGT SNOW   9   3  78 NE6       30.08F WCI  -1
LONGVILLE      LGT SNOW   9   5  85 NE7       30.05S WCI  -3
GRAND RAPIDS   LGT SNOW   9   5  84 NE7       30.07S FOG     WCI  -2
CRANE LAKE     LGT SNOW   7   1  78 CALM      30.16S
ORR            LGT SNOW   7   1  78 NE3       30.08S
COOK           LGT SNOW   7   3  85 NE5       30.10R VSB 3/4 WCI  -2
WALKER         LGT SNOW   8   4  82 NE7       30.05F WCI  -3
$$
MNZ012-019>021-037-200400-
   Northeast Minnesota

CITY           SKY/WX    TMP DP  RH WIND       PRES   REMARKS
DULUTH         LGT SNOW  12   7  80 NE10      30.01S WCI  -1
ELY            LGT SNOW   7   1  78 NE6       30.09S WCI  -3
HIBBING        LGT SNOW   8   4  83 NE8       30.06S FOG     WCI  -4
EVELETH        LGT SNOW N/A N/A N/A NE10G16   30.07S
DULUTH HARBOR  LGT SNOW  18  16  93 NE25G35   30.06F WCI  -1
TWO HARBORS    CLOUDY    16   9  73 N9        30.04S WCI   4
GRAND MARAIS     N/A     11   2  67 NE9G20    30.17R WCI  -2
G MARAIS ARPRT LGT SNOW   3  -2  78 N12G20    30.05R WCI -13
$$
MNZ029>031-032-039>041-046>048-054>057-064-200400-
   West Central Minnesota

CITY           SKY/WX    TMP DP  RH WIND       PRES   REMARKS
FERGUS FALLS   FLURRIES  10   7  85 NE9       30.04S WCI  -2
WHEATON        LGT SNOW   9   3  78 N14       30.05F WCI  -8
MORRIS         LGT SNOW  12   9  85 N13       29.98S WCI  -3
ALEXANDRIA     CLOUDY    12   6  77 NE13G23   29.96F WCI  -3
ELBOW LAKE     FLURRIES  12   8  85 NE14      30.00F WCI  -4
WADENA         FLURRIES  10   7  85 NE14G21   29.99F WCI  -5
GLENWOOD       FLURRIES  12   9  85 NE18      29.96R WCI  -5
APPLETON       CLOUDY    16   9  73 NE16      29.98F WCI   0
BENSON         FLURRIES  14   9  79 NE9       29.99R WCI   2
ORTONVILLE     LGT SNOW  10   7  85 N15       30.00S WCI  -6
MADISON        FLURRIES  16  12  86 N16       29.98F WCI   0
WILLMAR        CLOUDY    16  10  79 NE14      29.96S WCI   1
$$
MNZ033>034-036-042>043-049>051-058-059-200400-
   Central Minnesota

CITY           SKY/WX    TMP DP  RH WIND       PRES   REMARKS
ST CLOUD       CLOUDY    14  10  84 N10       29.94F WCI   1
SAUK CENTRE    CLOUDY    12   7  80 NE12G20   29.96S WCI  -2
PAYNESVILLE    FLURRIES  14  11  87 NE14G21   29.93F WCI   0
AITKIN         CLOUDY    10   3  72 N8G18     29.99F WCI  -1
PINE RIVER     MIX PCPN   9   5  85 N14       30.05F WCI  -8
BRAINERD       CLOUDY    13   3  64 NE13      30.00S WCI  -2
STAPLES        MIX PCPN  10   7  85 NE9G17    29.99F WCI  -2
LONG PRAIRIE   CLOUDY    12   7  79 N15       29.97R WCI  -4
LITTLE FALLS     N/A    N/A N/A N/A NE6         N/A
LITCHFIELD     CLOUDY    16  14  93 NE14      29.93R WCI   1
BUFFALO        CLOUDY    18  13  80 N15G23    29.93R WCI   4
MAPLE LAKE     CLOUDY    19  15  84 NE13G18   29.94R WCI   5
HUTCHINSON     CLOUDY    19  15  84 N14G20    29.92R WCI   5
$$
MNZ037-044-045-052-053-200400-
   East Central Minnesota

CITY           SKY/WX    TMP DP  RH WIND       PRES   REMARKS
PRINCETON      CLOUDY    19  14  79 N13G20    29.93F WCI   7
MORA           FLURRIES  18  12  79 NE9       29.97F WCI   6
CAMBRIDGE      FLURRIES  19  10  68 N12G17    29.93F WCI   7
RUSH CITY      LGT SNOW  17  13  83 NE12G20   29.94F WCI   5
MOOSE LAKE     LGT SNOW  14  10  85 NE12G18   29.98F WCI   0
HINCKLEY       CLOUDY    19  14  79 NE14G24   29.96F WCI   6
CLOQUET        FLURRIES  10   7  85 N12G20    30.00F WCI  -4
MCGREGOR       CLOUDY    12   9  85 NE15G21   30.01S WCI  -4
$$
MNZ071>073-080-081-089-090-097-098-200400-
   Southwest Minnesota

CITY           SKY/WX    TMP DP  RH WIND       PRES   REMARKS
MONTEVIDEO     FLURRIES  14  10  85 NE12      29.97S WCI   0
GRANITE FALLS  FLURRIES  17  13  86 N14       29.96F WCI   3
CANBY          LGT SNOW  14  11  89 N10       29.97F WCI   1
MARSHALL       LGT SNOW  14  12  92 N13       29.94F FOG     WCI   0
REDWOOD FALLS  CLOUDY    16  14  92 N10       29.93R WCI   4
OLIVIA         CLOUDY    18  14  86 N14       29.93R WCI   4
PIPESTONE      FLURRIES  12   9  85 NE16G22   29.86S WCI  -4
WINDOM         CLOUDY    16   3  57 N14       29.86F HAZE    WCI   1
WORTHINGTON    FLURRIES  15  12  88 N16G22    29.85F WCI  -1
JACKSON        CLOUDY    18  14  86 N16       29.85R WCI   3
TRACY          CLOUDY    16  15  95 N13       29.90S FOG     WCI   2
SLAYTON        LGT SNOW  14  12  93 N17       29.87F WCI  -3
$$
MNZ065>067-074>077-082>085-091>093-200400-
   South Central Minnesota

CITY           SKY/WX    TMP DP  RH WIND       PRES   REMARKS
MANKATO        LGT SNOW  20  18  92 N15       29.85S FOG     WCI   6
NEW ULM        CLOUDY    18  14  86 N10       29.89S WCI   6
ST JAMES       CLOUDY    18  18 100 N10       29.88S WCI   6
FAIRMONT       CLOUDY    20  18  92 N14       29.85S FOG     WCI   7
GLENCOE        CLOUDY    19  16  88 NE9G20    29.90R WCI   9
FARIBAULT      CLOUDY    21  19  93 N9        29.84F FOG     WCI  11
OWATONNA       CLOUDY    23  21  93 N9        29.82S FOG     WCI  13
WASECA         CLOUDY    23  21  93 N10       29.84S FOG     WCI  12
ALBERT LEA     CLOUDY    25  21  86 N7        29.80R FOG     WCI  17
$$
MNZ078>079-086>088-094>096-200400-
   Southeast Minnesota

CITY           SKY/WX    TMP DP  RH WIND       PRES   REMARKS
ROCHESTER      LGT SNOW  24  23  96 N14       29.79R FOG     WCI  12
RED WING       CLOUDY    23  19  86 NE6       29.86S WCI  16
STANTON        CLOUDY    23  21  92 NE10      29.84S FOG     WCI  12
DODGE CENTER   CLOUDY    21  21 100 N10       29.80S FOG     WCI  10
WINONA         CLOUDY    30  28  93 NE6       29.80S WCI  24
AUSTIN         CLOUDY    25  21  86 NE8       29.78S FOG     WCI  16
PRESTON        CLOUDY    28  27  96 N8        29.77R FOG     WCI  19
$$
ABBREVIATIONS USED IN REMARKS
   TC - TEMPERATURES IN CELSIUS
  WCI - WIND CHILL INDEX
   HX - HEAT INDEX
  VSB - VISIBILITY
$$




USA.gov is the U.S. government's official web portal to all federal, state and local government web resources and services.